STARLINK-36303, 68969

Orbit data source: Space-Track

STARLINK-36303, 68969 is a payload satellite owned by SpaceX/Seattle (US) in LEO that was launched on Fri, 01 May 2026 UTC via an FALCON 9 launch vehicle from the Air Force Eastern Test Range (AFETR). Payload-class satellites include a variety of spacecraft equipped with specific instruments for various scientific and technological missions. These include communications satellites like Starlink; space stations such as the ISS; scientific satellites like the Hubble; Earth observation satellites from companies like Planet Labs, Umbra, and HawkEye 360; GPS; miniature CubeSats for education and research; and military/defense satellites.

Loading next visibility...
Identifier
68969, 2026-099U
Orbit
LEO
Country
Flag of USUS
Related business
Manufacturer
SpaceX/Seattle
Mission
Operational spacecraft
Bus & Motor
STARLINK V2MO, Unknown motor
Mass
575 kg wet, ~530 kg dry
Launch date (UTC)
2026-05-01 (2 months ago)
Launch vehicle
FALCON 9
Launch site
Air Force Eastern Test Range (AFETR)
Object type
Payload
Rocket body
Debris
Shape & HBR
Unknown shape, 14.5 m
Radar Cross Section
Large (>1 m²)

Expand to show TLE details & history
Last TLE update: 12 hours ago

TLE from 12 hours ago
0 STARLINK-36303
1 68969U 26099U   26171.35596772  .00028006  00000-0  85902-3 0  9998
2 68969  53.1596 146.1246 0001578  94.4359 265.6823 15.33573341  7765
Epoch: 2026-06-20T08:32Z
TLE epoch observation values (Epoch: 2026-06-20T08:32:35.611Z)
Latitude
-0.00004°
Longitude
109.40442°
Altitude
466.144 km
Speed
7.634 km/s
True Right ascension
09h 44m 29s
True Declination
0° 00' 00"
Sunlit
Object was in daylight at epoch
Visualization orbit readout
Latitude
Unknown
Longitude
Unknown
Altitude
Unknown
Speed
Unknown
Apparent Right ascension
Unknown
Apparent Declination
Unknown
Sunlit
N/A
Visualization observer readout
Local Sidereal Time
07:15:21
Azimuth
Unknown
Elevation
Unknown
Doppler factor
Unknown
Orbital elements
Apogee altitude
466.498 km
Perigee altitude
464.338 km
Semi-major axis
6,843.555 km
Eccentricity
0.00016
Inclination
53.1596°
RAAN
146.1246°
Arg. of periapsis
94.4359°
True anomaly
265.66427°
Mean anomaly
265.6823°
Eccentric anomaly
265.67328°
Mean motion
3.83372 °/min
Orbital period
93.9 mins
BSTAR
0.00085902
Loading maneuver chart data...
Computing Atmospheric mass density...
Loading historical data...
Loading historical data...
Loading historical data...
Loading historical data...
Loading historical data...
Loading historical data...
Loading historical data...

Documentation

Showing up to 5 results
|